Retour au catalogue

DMSP 5D-2 F13 DEB

ActifSSO
NORAD 40526·DEBRIS·🇺🇸 United States

Lancé Mar 24, 1995 depuis Vandenberg Space Force Base

Loading…

Prochains Passages (prochaines 24 heures)

TLE

FraisSource: Space-Track

Époque: Sep 14, 2026, 08:31 UTC

1 40526U 95015DN  26257.35536394  .00003489  00000-0  95329-3 0  9992
2 40526  98.6102 304.7009 0023327  38.6099 321.6756 14.47752491598220

Suivez DMSP 5D-2 F13 DEB en temps réel avec AllMySat

Download on the App Store